Regional Weather Roundup
Issued by NWS Cleveland, OH

Home | Current Version | Previous Version | Text Only | Print | Product List | Glossary On
Versions: 1 2 3 4 5 6 7 8 9 10 11 12 13 14 15 16 17 18 19 20 21 22 23 24 25 26 27 28 29 30 31 32 33 34 35 36 37 38 39 40 41 42 43 44 45 46 47 48 49 50
000
ASUS41 KCLE 011512
RWRCLE
OHIO REGIONAL WEATHER ROUNDUP
NATIONAL WEATHER SERVICE WILMINGTON, OH
1100 AM EDT SUN MAY 01 2016

NOTE: "FAIR" INDICATES FEW OR NO CLOUDS BELOW 12,000 FEET WITH NO
SIGNIFICANT WEATHER AND/OR OBSTRUCTIONS TO VISIBILITY.

OHZ001>008-015>018-024>027-034-035-043-044-011600-
   NORTHWEST OHIO

CITY           SKY/WX    TMP DP  RH WIND       PRES   REMARKS
DEFIANCE       CLOUDY    54  50  86 NE6       29.96R
FINDLAY        CLOUDY    59  53  80 E3        29.93S
TOLEDO EXPRESS CLOUDY    51  50  96 NE5       29.96R FOG
TOLEDO EXEC    CLOUDY    51  49  92 NE6       29.96R FOG
LIMA           CLOUDY    60  60 100 CALM      29.94R FOG
$$

OHZ009>014-019>023-028>033-038-089-011600-
   NORTHEAST OHIO

CITY           SKY/WX    TMP DP  RH WIND       PRES   REMARKS
CLE-HOPKINS    CLOUDY    59  57  93 W6        29.96R FOG
CLE-LAKEFRONT  CLOUDY    57  55  93 W8        29.93R
CUY CO. ARPT   CLOUDY    59  57  94 W9        29.94R FOG
LORAIN-ELYRIA  CLOUDY    56  53  90 N9        29.94R FOG
ASHTABULA      CLOUDY    59  57  93 SW6       29.93R
AKRON-CANTON   CLOUDY    62  59  90 W8        29.94S FOG
WOOSTER        CLOUDY    63  59  87 W9        29.95R
MANSFIELD      CLOUDY    64  60  87 W8        29.94S
YOUNGSTOWN     CLOUDY    63  59  87 SW10      29.93S
$$

OHZ042-051>053-060>062-070>072-077>081-011600-
  SOUTHWEST OHIO

CITY           SKY/WX    TMP DP  RH WIND       PRES   REMARKS
CINC-COVINGTON PTSUNNY   71  63  75 S8        29.94R
CINC-LUNKEN    PTSUNNY   70  65  84 S7        29.94S
HAMILTON       FAIR      70  63  78 SW5       29.94S
DAYTON         CLOUDY    65  61  87 SW6       29.95S
WRIGHT-PAT AFB CLOUDY    68  64  88 S6        29.94R
DAYTON GENERAL CLOUDY    66  61  84 CALM      29.93S
WILMINGTON     PTSUNNY   68  62  81 S8        29.94F
$$

OHZ036-037-039>041-045>050-054>059-063>069-073>076-082>088-011600-
  CENTRAL AND SOUTHEAST OHIO

CITY           SKY/WX    TMP DP  RH WIND       PRES   REMARKS
COLUMBUS       CLOUDY    62  61  96 S8        29.95F
OSU AIRPORT    CLOUDY    66  61  84 SW9       29.95S
BOLTON FIELD   CLOUDY    64  63  94 S6        29.96F FOG
RICKENBACK AFB CLOUDY    63  61  94 CALM      29.95F
NEWARK         CLOUDY    66  60  81 SW9       29.96R
MARION         CLOUDY    64  60  87 W6        29.95R
LANCASTER      CLOUDY    66  61  84 SW5       29.97R
ZANESVILLE     CLOUDY    66  61  84 SW5       29.96F
NEW PHILLY     CLOUDY    62  59  90 SW6       29.97R
$$




USA.gov is the U.S. government's official web portal to all federal, state and local government web resources and services.